TimeCST,TemperatureF,Dew PointF,Humidity,Sea Level PressureIn,VisibilityMPH,Wind Direction,Wind SpeedMPH,Gust SpeedMPH,PrecipitationIn,Events,Conditions,WindDirDegrees,DateUTC
12:53 AM,14.0,9.0,80,30.43,-9999.0,WNW,6.9,-,N/A,,Overcast,300,2001-01-01 06:53:00
1:53 AM,15.1,9.0,77,30.43,-9999.0,NW,6.9,-,N/A,,Overcast,320,2001-01-01 07:53:00
2:53 AM,15.1,8.1,74,30.45,-9999.0,NW,6.9,-,N/A,,Overcast,310,2001-01-01 08:53:00
3:53 AM,14.0,8.1,77,30.46,-9999.0,NW,8.1,-,N/A,,Overcast,310,2001-01-01 09:53:00
4:53 AM,14.0,9.0,80,30.46,-9999.0,WNW,4.6,-,N/A,,Overcast,300,2001-01-01 10:53:00
5:53 AM,15.1,9.0,77,30.47,-9999.0,NW,6.9,-,N/A,,Overcast,310,2001-01-01 11:53:00
6:53 AM,14.0,9.0,80,30.47,-9999.0,NW,4.6,-,N/A,,Overcast,310,2001-01-01 12:53:00
7:53 AM,15.1,10.0,80,30.49,-9999.0,NW,5.8,-,N/A,,Overcast,320,2001-01-01 13:53:00
8:04 AM,15.8,10.4,79,30.43,-9999.0,NNW,5.8,-,N/A,,Overcast,340,2001-01-01 14:04:00
8:21 AM,15.8,10.4,79,30.43,-9999.0,NNW,4.6,-,0.00,Snow,Light Snow,330,2001-01-01 14:21:00
8:53 AM,15.1,10.0,80,30.50,-9999.0,NNW,4.6,-,0.00,Snow,Light Snow,330,2001-01-01 14:53:00
9:03 AM,15.8,10.4,79,30.44,-9999.0,NW,5.8,-,0.00,Snow,Light Snow,310,2001-01-01 15:03:00
9:10 AM,15.8,10.4,79,30.44,-9999.0,NW,4.6,-,0.00,Snow,Light Snow,310,2001-01-01 15:10:00
9:30 AM,15.8,10.4,79,30.45,-9999.0,NNW,5.8,-,0.00,Snow,Light Snow,330,2001-01-01 15:30:00
9:53 AM,16.0,10.9,81,30.51,-9999.0,NNW,3.5,-,0.00,Snow,Light Snow,330,2001-01-01 15:53:00
10:02 AM,15.8,10.4,79,30.45,-9999.0,WSW,3.5,-,0.00,Snow,Light Snow,250,2001-01-01 16:02:00
10:53 AM,18.0,10.9,74,30.51,7.0,Calm,Calm,-,0.00,,Overcast,0,2001-01-01 16:53:00
11:28 AM,19.4,12.2,74,30.44,6.0,North,6.9,-,0.00,,Haze,350,2001-01-01 17:28:00
11:53 AM,19.0,12.0,74,30.51,3.0,NNW,8.1,-,0.00,Snow,Light Snow,330,2001-01-01 17:53:00
12:26 PM,19.4,12.2,74,30.42,4.0,NNW,8.1,-,0.00,Snow,Light Snow,330,2001-01-01 18:26:00
12:53 PM,19.9,12.9,74,30.48,2.5,NW,6.9,-,0.00,Snow,Light Snow,320,2001-01-01 18:53:00
1:03 PM,19.4,12.2,74,30.41,3.0,NW,9.2,-,0.00,Snow,Light Snow,320,2001-01-01 19:03:00
1:53 PM,21.9,12.9,68,30.47,8.0,NNW,8.1,-,0.00,,Overcast,340,2001-01-01 19:53:00
2:08 PM,21.2,12.2,68,30.41,10.0,Variable,5.8,-,N/A,,Overcast,0,2001-01-01 20:08:00
2:53 PM,21.0,12.0,68,30.48,9.0,NNW,9.2,-,N/A,,Overcast,330,2001-01-01 20:53:00
3:53 PM,21.0,12.9,71,30.50,8.0,WNW,8.1,-,N/A,,Overcast,300,2001-01-01 21:53:00
4:53 PM,21.0,12.0,68,30.51,9.0,NNW,4.6,-,N/A,,Overcast,340,2001-01-01 22:53:00
5:53 PM,19.9,12.0,71,30.52,10.0,NW,5.8,-,N/A,,Overcast,310,2001-01-01 23:53:00
6:53 PM,19.9,12.0,71,30.54,10.0,NNE,6.9,-,N/A,,Overcast,20,2001-01-02 00:53:00
7:53 PM,18.0,10.0,71,30.57,10.0,North,5.8,-,N/A,,Overcast,10,2001-01-02 01:53:00
8:53 PM,17.1,9.0,71,30.59,10.0,Variable,4.6,-,N/A,,Overcast,0,2001-01-02 02:53:00
9:53 PM,17.1,9.0,71,30.61,10.0,Calm,Calm,-,N/A,,Overcast,0,2001-01-02 03:53:00
10:53 PM,16.0,9.0,74,30.62,10.0,NNE,4.6,-,N/A,,Overcast,20,2001-01-02 04:53:00
11:53 PM,16.0,9.0,74,30.62,10.0,Calm,Calm,-,N/A,,Overcast,0,2001-01-02 05:53:00